User: anonymous   Login
Location: Caltech
(34.1382°N, 118.1253°W)
Time: 00:29:11
(UTC-08:00)
Language:

HO-68 - Orbit

View from above orbital plane
View from above orbital plane
View from above satellite
View from above satellite

Ground track
Ground track

The orbit data is extracted from the following two-line orbital elements,

1 36122U 09072B   17020.81382967 -.00000031  00000-0  29161-4 0  9994
2 36122 100.1179  53.5957 0007211 210.9588 149.1101 13.16337738341235
Epoch (UTC): 20 January 2017 19:31:54
Eccentricity: 0.0007211
inclination: 100.1179°
perigee height: 1193 km
apogee height: 1204 km
right ascension of ascending node: 53.5957°
argument of perigee: 210.9588°
revolutions per day: 13.16337738
mean anomaly at epoch: 149.1101°
orbit number at epoch: 34123

The dashed part of the orbit path shows where the satellite is in the earth's shadow,  

DLR